DELTA 1 DEB, 6214

Orbit data source: Space-Track

DELTA 1 DEB, 6214 is space debris in SSO originally from a launch on Mon, 28 Feb 1966 UTC launched from the Air Force Eastern Test Range (AFETR). Debris objects in space refer to the collection of defunct objects orbiting the Earth. Examples of debris include non-operational satellites, rocket bodies, and fragments generated from explosions, collisions, or faulty payload assembly.

Loading next visibility...
DELTA 1 DEB details
Identifier
6214, 1966-016E
Orbit
SSO
Last TLE update15 hours ago
Origin
Flag of USGSFC (US)
ManufacturerUnknown
MissionSpacecraft
Bus & MotorUnknown
MassUnknown
Launch date (UTC)
1966-02-28 (59 years ago)
Launch vehicleUnknown
Launch site
Air Force Eastern Test Range (AFETR)
Object type
Payload
Rocket body
Debris
Shape & HBRUnknown
Radar Cross SectionSmall (<0.1 m²)

Expand to show TLE details & history

TLE from 15 hours ago
0 DELTA 1 DEB
1 06214U 66016E   24355.93558764  .00000138  00000-0  99478-3 0  9990
2 06214 101.7256 340.7359 0119265 148.8007 240.2404 12.62628551706355
Epoch: 2024-12-20T22:27Z
Definitive object data (Epoch: 2024-12-20T22:27:14.772Z)
Latitude27.2714°
Longitude-92.18157°
Altitude1,462.122 km
Speed7.112 km/s
True Right ascension22h 18m 29s
True Declination27° 08' 39"
Sunlit
Object was in daylight at TLE epoch
Visualization TLE readout
Latitude-74.95977°
Longitude-35.22264°
Altitude1,500.819 km
Speed7.086 km/s
Apparent Right ascension00h 41m 40s
Apparent Declination-59° 54' 51"
Sunlit
Object is in daylight
Visualization observer readout
Local Sidereal Time12:06:55
Azimuth192.356° SSW
Elevation-69.275°
Doppler factor1
Orbital elements
Apogee altitude1,502.523 km
Perigee altitude1,316.761 km
Semi-major axis7,787.779 km
Eccentricity0.0119265
Inclination101.7256°
RAAN340.7359°
Arg. of periapsis148.8007°
True anomaly239.06277°
Mean anomaly240.2404°
Eccentric anomaly239.65071°
Mean motion3.15808 °/min
BSTAR0.00099478
Orbital period113.99 mins
Loading maneuver chart data...
Loading historical data...
Loading historical data...
Loading historical data...
Loading historical data...
Loading historical data...
Loading historical data...
Loading historical data...
Other satellites on launch #16 in the year 1966 (1966-02-28 UTC)

DELTA 1 DEB Visibility forecast

Observer location: undefined°, undefined

Span
Click to sort rows by Start time (UTC) header in descending order
Start Az.
Max El. time (UTC)
Max El. Az.
Max El.
End time (UTC)
End Az.
10 mins2024-12-21 14:07:01.232Z348.667° N2024-12-21 14:12:01.232Z306.484° NW18.943°2024-12-21 14:17:01.232Z264.831° W
10 mins2024-12-21 21:19:01.232Z93.466° ESE2024-12-21 21:23:01.232Z58.175° ENE22.316°2024-12-21 21:29:01.232Z7.538° NNE
14 mins2024-12-21 23:08:01.232Z167.516° S2024-12-21 23:14:01.232Z216.276° SW44.196°2024-12-21 23:22:01.232Z339.902° N
6 mins2024-12-22 01:05:01.232Z250.842° W2024-12-22 01:07:01.232Z266.124° W13.686°2024-12-22 01:11:01.232Z296.544° NW
11 mins2024-12-22 11:06:01.232Z45.921° ENE2024-12-22 11:11:01.232Z97.893° ESE27.321°2024-12-22 11:17:01.232Z154.668° SSE
8 mins2024-12-22 12:57:01.232Z5.237° NNE2024-12-22 13:03:01.232Z300.449° NW38.346°2024-12-22 13:05:01.232Z255.8° W
|